Weather History for KFAT - February, 2013

Change the Weather History Date:

Saturday, February 16, 2013

  Actual Average Record
Temperature  
Mean Temperature 58 °F 52 °F  
Max Temperature 73 °F 62 °F 80 °F (1943)
Min Temperature 42 °F 42 °F 27 °F (1956)
Degree Days  
Heating Degree Days 7    
Month to date heating degree days 220  
Since 1 July heating degree days 1426  
Cooling Degree Days 0    
Month to date cooling degree days 0  
Year to date cooling degree days 0  
Growing Degree Days 7 (Base 50)    
Moisture  
Dew Point 41 °F    
Average Humidity 53    
Maximum Humidity 83    
Minimum Humidity 23    
Precipitation  
Precipitation 0.00 in 0.07 in 0.93 in (1955)
Month to date precipitation 0.42 1.15  
Year to date precipitation 1.00 3.34  
Since 1 July precipitation 4.39 7.00  
Snow  
Snow 0.00 in - - ()
Month to date snowfall 0.0  
Since 1 July snowfall 0.0  
Snow Depth 0.00 in    
Sea Level Pressure  
Sea Level Pressure 30.14 in    
Wind  
Wind Speed 1 mph (ENE)    
Max Wind Speed 7 mph    
Max Gust Speed -    
Visibility 9 miles    
Events      
T = Trace of Precipitation, MM = Missing Value Source: NWS Daily Summary

Daily Weather History Graph

Daily Weather History Graph

Search for Another Location

Airport or City:

Trip Planner

Search our weather history database for the weather conditions in past years. The results will help you decide how hot, cold, wet, or windy it might be!

Date:

Astronomy

Feb. 16, 2013 Rise Set
Actual Time 6:45 AM PST 5:40 PM PST
Civil Twilight 6:19 AM PST 6:07 PM PST
Nautical Twilight 5:48 AM PST 6:37 PM PST
Astronomical Twilight 5:18 AM PST 7:07 PM PST
Moon 10:13 AM PST (2/16) No Moon Set
Length of Visible Light 11h 47m
Length of Day
10h 55m
Waxing Crescent, 40% of the Moon is Illuminated
Feb 16
Waxing Crescent
Feb 17
First Quarter
Feb 25
Full
Mar 4
Last Quarter
Mar 11
New

Hourly Weather History & Observations

Time (PST) Temp. Windchill Dew Point Humidity Pressure Visibility Wind Dir Wind Speed Gust Speed Precip Events Conditions
12:53 AM 48.9 °F - 42.1 °F 77% 30.25 in 10.0 mi Calm Calm - N/A   Partly Cloudy
1:53 AM 46.9 °F - 41.0 °F 80% 30.24 in 10.0 mi Calm Calm - N/A   Partly Cloudy
2:53 AM 46.0 °F - 39.9 °F 79% 30.22 in 10.0 mi Calm Calm - N/A   Scattered Clouds
3:53 AM 46.4 °F - 39.2 °F 76% 30.20 in 10.0 mi Calm Calm - N/A   Mostly Cloudy
4:53 AM 45.0 °F - 39.0 °F 80% 30.19 in 10.0 mi Calm Calm - N/A   Mostly Cloudy
5:53 AM 46.0 °F - 39.9 °F 79% 30.20 in 10.0 mi Calm Calm - N/A   Mostly Cloudy
6:53 AM 42.1 °F 39.2 °F 37.9 °F 85% 30.21 in 8.0 mi ENE 4.6 mph - N/A   Mostly Cloudy
7:53 AM 46.9 °F - 39.9 °F 77% 30.22 in 7.0 mi Calm Calm - N/A   Mostly Cloudy
8:53 AM 53.1 °F - 42.1 °F 66% 30.23 in 6.0 mi SE 3.5 mph - N/A   Haze
9:53 AM 57.0 °F - 41.0 °F 55% 30.22 in 10.0 mi SE 4.6 mph - N/A   Overcast
10:53 AM 61.0 °F - 42.1 °F 50% 30.21 in 9.0 mi Calm Calm - N/A   Overcast
11:53 AM 64.0 °F - 39.9 °F 41% 30.19 in 8.0 mi Calm Calm - N/A   Overcast
12:53 PM 66.9 °F - 39.9 °F 37% 30.15 in 8.0 mi Calm Calm - N/A   Overcast
1:53 PM 69.1 °F - 39.9 °F 35% 30.12 in 9.0 mi Calm Calm - N/A   Overcast
2:53 PM 72.0 °F - 39.9 °F 31% 30.09 in 9.0 mi Calm Calm - N/A   Overcast
3:53 PM 73.0 °F - 34.0 °F 24% 30.07 in 10.0 mi Calm Calm - N/A   Mostly Cloudy
4:53 PM 69.1 °F - 42.1 °F 38% 30.06 in 10.0 mi SE 3.5 mph - N/A   Mostly Cloudy
5:53 PM 66.0 °F - 41.0 °F 40% 30.05 in 10.0 mi Calm Calm - N/A   Mostly Cloudy
6:53 PM 62.6 °F - 41.0 °F 45% 30.06 in 10.0 mi Calm Calm - N/A   Scattered Clouds
7:53 PM 55.9 °F - 46.0 °F 69% 30.06 in 9.0 mi NW 3.5 mph - N/A   Clear
8:53 PM 55.0 °F - 46.9 °F 74% 30.06 in 8.0 mi NW 4.6 mph - N/A   Clear
9:53 PM 53.1 °F - 46.0 °F 77% 30.05 in 7.0 mi NNW 4.6 mph - N/A   Clear
10:53 PM 52.0 °F - 45.0 °F 77% 30.04 in 7.0 mi Calm Calm - N/A   Clear
11:53 PM 50.0 °F - 44.1 °F 80% 30.03 in 7.0 mi Calm Calm - N/A   Clear